Regional Weather Roundup
Issued by NWS

Home | Current Version | Previous Version | Text Only | Print | Product List | Glossary On
Versions: 1 2 3 4 5 6 7 8 9 10 11 12 13 14 15 16 17 18 19 20 21 22 23 24 25 26 27 28 29 30 31 32 33 34 35 36 37 38 39 40 41 42 43 44 45 46 47 48 49 50
000
ASUS45 KABQ 060910
RWRNM
NEW MEXICO REGIONAL WEATHER ROUNDUP
NATIONAL WEATHER SERVICE ALBUQUERQUE NM
300 AM MDT MON JUL 06 2015

NOTE: "FAIR" MEANS FEW OR NO CLOUDS BELOW 12,000 FEET AGL WITH NO
       SIGNIFICANT WEATHER OR OBSTRUCTIONS TO VISION.

      THIS PRODUCT IS RELEASED AS TWO VERSIONS.  ONE VERSION NEAR
      THE TOP OF THE HOUR CONTAINING PRELIMINARY DATA FROM ALBUQUERQUE
      AND OTHER STATIONS.  A FINAL VERSION WITH ADDITIONAL DATA IS
      ISSUED ABOUT 10 MINUTES AFTER THE HOUR.

NMZ501-503-504-510>518-061000-
NORTHWEST PLATEAU/NORTHCENTRAL MOUNTAINS

CITY           SKY/WX    TMP DP  RH WIND       PRES   REMARKS
FARMINGTON     CLEAR     64  52  64 W7        30.12R
LOS ALAMOS     MOCLDY    62  54  75 N3        30.25F
SANTA FE       CLOUDY    63  56  78 N7        30.18F
TAOS           CLOUDY    59  48  67 NE5       30.25F
ANGEL FIRE     CLOUDY    57  51  81 SW3       30.32F

$$
NMZ402-403-502-505>509-061000-
WESTCENTRAL MOUNTAINS/SOUTHWEST MOUNTAINS

CITY           SKY/WX    TMP DP  RH WIND       PRES   REMARKS
GALLUP         MOCLDY    60  57  89 CALM      30.25F
GRANTS         CLOUDY    60  60  97 CALM      30.26S
SILVER CITY      N/A     64  59  82 NW13      30.16F

$$
NMZ407-409-411-412-061000-
SOUTHERN DESERTS

CITY           SKY/WX    TMP DP  RH WIND       PRES   REMARKS
LORDSBURG      PTSUNNY   70  57  64 W8        30.11S
DEMING         MOCLDY    70  61  73 SW8       30.08S
LAS CRUCES     MOCLDY    70  60  70 W8        30.08S
HOLLOMAN AFB   PTCLDY    74  62  65 VRB6      30.01S
ALAMOGORDO     MOCLDY    75  57  53 CALM      30.04S
T OR C         CLOUDY    72  56  57 NW12      30.10S

$$
NMZ519>523-061000-
CENTRAL VALLEYS/CENTRAL HIGHLANDS

CITY           SKY/WX    TMP DP  RH WIND       PRES   REMARKS
ALBUQUERQUE    CLOUDY    68  61  78 E6        30.15F
DOUBLE EAGLE   CLOUDY    62  60  92 CALM      30.18F
MORIARTY ARPT    N/A     65  55  70 NW7       30.19S
CLINES CORNERS MOCLDY    61  55  81 NW17G24   30.19F
BELEN          CLOUDY    67  60  77 NE7       30.15R
SOCORRO        CLOUDY    71  56  59 CALM      30.10F

$$
NMZ524>526-539-540-061000-
SOUTHCENTRAL MOUNTAINS

CITY           SKY/WX    TMP DP  RH WIND       PRES   REMARKS
RUIDOSO        CLEAR     63  54  72 NW9G16    30.22S

$$
NMZ527>531-061000-
NORTHEAST HIGHLANDS/NORTHEAST PLAINS

CITY           SKY/WX    TMP DP  RH WIND       PRES   REMARKS
LAS VEGAS      CLOUDY    61  52  72 NW5       30.15F
RATON          MOCLDY    65  55  70 N8        30.12R
CLAYTON        MOCLDY    71  57  61 W6        30.00S

$$
NMZ532>537-061000-
EASTCENTRAL PLAINS

CITY           SKY/WX    TMP DP  RH WIND       PRES   REMARKS
TUCUMCARI      PTCLDY    72  58  61 SW5       29.93S
CANNON AFB     PTCLDY    70  64  80 S7        29.99S
CLOVIS AIRPORT PTCLDY    70  61  73 S8          N/A

$$
NMZ028-029-538-061000-
SOUTHEAST PLAINS

CITY           SKY/WX    TMP DP  RH WIND       PRES   REMARKS
ROSWELL        MOCLDY    78  61  55 W9        29.95S
ARTESIA        MOCLDY    77  63  61 S6        29.96F
CARLSBAD       MOCLDY    77  61  57 SE6       29.94S
HOBBS          PTCLDY    73  64  73 S12       30.00S


$$



USA.gov is the U.S. government's official web portal to all federal, state and local government web resources and services.